User: anonymous   Login
Location: Unspecified
(0.0000°N, 0.0000°E)
Time: 04:42:32
(UTC+00:00)
Language:

Amsat-Oscar-8 - Orbit

View from above orbital plane
View from above orbital plane
View from above satellite
View from above satellite

Ground track
Ground track

The orbit data is extracted from the following two-line orbital elements,

1 10703U 78026B   24170.88530940  .00000050  00000-0  65538-4 0  9991
2 10703  99.2566 145.0146 0006606 116.3418 297.0481 13.99539601362180
Epoch (UTC): 18 June 2024 21:14:50
Eccentricity: 0.0006606
inclination: 99.2566°
perigee height: 890 km
apogee height: 900 km
right ascension of ascending node: 145.0146°
argument of perigee: 116.3418°
revolutions per day: 13.99539601
mean anomaly at epoch: 297.0481°
orbit number at epoch: 36218

The dashed part of the orbit path shows where the satellite is in the earth's shadow,  

DLR